Weather in Troitskoe

Russia / Republic of Kalmykia     46°24′56″N   44°15′40″E
temp.,
°C
wind,
m/s
gust,
m/s
humid.,
%
clouds,
%
prec.,
mm/h
press.,
hPa
HPBL,
m
8 march, mon
mon800:00−1sw713613 0.0 1021521
03:00−2wsw612663 0.0 1020538
06:00−3sw711700 0.0 1019419
09:000wsw912580 0.0 1019932
12:00+3wsw811530 0.0 10181230
15:00+4wsw810530 0.0 10161288
18:00+1sw510650 0.0 1016214
21:000sw6117230 0.0 1017254
9 march, tue
tue900:000sw61079100 0.0 1015266
03:00−1wsw6128670 0.0 1015331
06:00−1wsw6128976 0.0 1014390
09:00+2wsw9147687 0.0 1014946
12:00+4wsw91369100 0.0 10141349
15:00+2w71287100 0.6 1014893
18:00+1wnw598582 0.1 1014338
21:00−1wnw368391 0.1 1017191
10 march, wed
wed1000:00−2w510859 0.0 1018294
03:00−3wnw6108027 0.0 1019360
06:00−3wnw588548 0.0 1021515
09:00−2nw676169 0.2 10231163
12:00−1nw6852100 0.1 10241479
15:000nw6849100 0.1 10241632
18:00−3nnw475399 0.0 1024313
21:00−4nne2459100 0.0 1025497
11 march, thu
thu1100:00−4nne3451100 0.0 1025624
03:00−4nne4552100 0.0 1025752
06:00−6ne6758100 0.0 1025571
09:00−7ne6750100 0.0 1027614
12:00−6ne6640100 0.0 10271017
15:00−6ne6632100 0.0 10271197
18:00−8ne563299 0.0 10281161
21:00−8ne673395 0.0 1030927
12 march, fri
fri1200:00−10ne57350 0.0 1031781
03:00−10ne57383 0.0 1032738
06:00−11ene45430 0.0 1033594
09:00−9ene44360 0.0 1035698
12:00−7e33260 0.0 1034978
15:00−5ene33240 0.0 10341124
18:00−5e34290 0.0 1034624
21:00−6ese34320 0.0 1035568